Weather reports worldwide

Advertisment
Sevilla/San Pablo, Spain (8391): temperature & dewpoint: 09.12.2019 19:00:00 - 15.12.2019 19:00:00 (CET)Sevilla/San Pablo, Spain (8391): wind speed: 09.12.2019 19:00:00 - 15.12.2019 19:00:00 (CET)Sevilla/San Pablo, Spain (8391): wind direction: 09.12.2019 19:00:00 - 15.12.2019 19:00:00 (CET)Sevilla/San Pablo, Spain (8391): reduced air pressure: 09.12.2019 19:00:00 - 15.12.2019 19:00:00 (CET)Sevilla/San Pablo, Spain (8391): visibility: 09.12.2019 19:00:00 - 15.12.2019 19:00:00 (CET)
Date & Time tt [°C] td [°C] ff [km/h] ff [kn] dd ppp [hPa] vv [km]
15.12.2019 19:00:00 15,6 7,4 8 4 S 1012,7 30
15.12.2019 18:00:00 16,4 6,3 11 6 SW 1013,2 -
15.12.2019 17:00:00 17,1 6,1 8 4 SSW 1013,7 -
15.12.2019 16:00:00 17,2 7,7 11 6 SW 1014,3 30
15.12.2019 15:00:00 17,5 7,3 5 3 S 1014,8 -
15.12.2019 14:00:00 17,4 7,6 5 3 SSE 1015,9 -
15.12.2019 13:00:00 17,0 9,4 8 4 SE 1017,1 30
15.12.2019 12:00:00 16,2 10,3 4 2 E 1018,5 -
15.12.2019 11:00:00 14,3 10,1 4 2 E 1018,9 -
15.12.2019 10:00:00 13,1 10,3 0 0 N 1018,9 30
15.12.2019 09:00:00 11,2 9,3 5 3 SSE 1018,5 -
15.12.2019 08:00:00 11,1 9,2 4 2 ESE 1018,5 -
15.12.2019 07:00:00 11,3 9,6 4 2 SE 1018,4 30
15.12.2019 06:00:00 11,7 9,8 2 1 ESE 1018,4 -
15.12.2019 05:00:00 12,4 10,3 8 4 S 1018,7 -
15.12.2019 04:00:00 12,5 10,6 2 1 ESE 1019,0 30
15.12.2019 03:00:00 13,1 10,5 2 1 S 1019,4 -
15.12.2019 02:00:00 12,9 10,4 5 3 SSE 1019,7 -
15.12.2019 01:00:00 13,6 10,6 4 2 SE 1020,4 30
15.12.2019 00:00:00 14,5 10,5 4 2 NW 1020,9 -
14.12.2019 23:00:00 14,6 10,0 4 2 NW 1021,0 -
14.12.2019 22:00:00 14,8 9,2 5 3 SSW 1021,0 30
14.12.2019 21:00:00 14,8 8,0 8 4 S 1021,1 -
14.12.2019 20:00:00 14,7 8,6 8 4 S 1021,2 -
14.12.2019 19:00:00 15,7 8,0 4 2 S 1021,0 30
14.12.2019 18:00:00 16,5 7,4 4 2 N 1021,2 -
14.12.2019 17:00:00 16,9 7,3 9 5 NNW 1021,2 -
14.12.2019 16:00:00 17,0 7,3 13 7 NW 1021,3 30
14.12.2019 15:00:00 16,8 6,8 5 3 NNW 1021,4 -
14.12.2019 14:00:00 16,5 7,0 11 6 N 1022,1 -
14.12.2019 13:00:00 16,2 6,9 8 4 N 1022,7 30
14.12.2019 12:00:00 16,1 8,2 13 7 NNW 1023,4 -
14.12.2019 11:00:00 15,5 9,1 11 6 WNW 1023,7 -
14.12.2019 10:00:00 14,4 9,6 5 3 W 1023,4 30
14.12.2019 09:00:00 13,4 10,2 4 2 W 1023,0 -
14.12.2019 08:00:00 13,6 10,6 9 5 NW 1022,9 -
14.12.2019 07:00:00 13,8 11,1 11 6 WNW 1022,6 25
14.12.2019 06:00:00 13,8 11,1 9 5 WNW 1022,3 -
14.12.2019 05:00:00 13,6 11,6 8 4 W 1022,5 -
14.12.2019 04:00:00 13,9 11,8 8 4 W 1022,9 25
14.12.2019 03:00:00 13,9 11,8 9 5 WNW 1023,1 -
14.12.2019 02:00:00 14,4 11,9 11 6 WNW 1023,3 -
14.12.2019 01:00:00 14,0 11,5 11 6 WNW 1023,6 30
14.12.2019 00:00:00 15,1 11,3 16 9 W 1023,6 -
13.12.2019 23:00:00 15,3 11,6 13 7 W 1023,5 -
13.12.2019 22:00:00 15,1 11,7 9 5 WSW 1023,6 30
13.12.2019 21:00:00 15,6 11,8 9 5 WSW 1023,4 -
13.12.2019 20:00:00 16,0 11,8 13 7 W 1023,6 -
13.12.2019 19:00:00 16,5 11,6 11 6 WSW 1023,3 30
13.12.2019 18:00:00 16,9 11,6 15 8 W 1023,1 -
13.12.2019 17:00:00 17,8 11,8 16 9 W 1023,1 -
13.12.2019 16:00:00 17,7 11,7 26 14 W 1023,1 30
13.12.2019 15:00:00 17,8 11,6 22 12 W 1023,5 -
13.12.2019 14:00:00 18,3 11,7 24 13 W 1024,0 -
13.12.2019 13:00:00 17,5 11,6 24 13 WSW 1024,6 30
13.12.2019 12:00:00 16,3 11,7 18 10 WSW 1025,4 -
13.12.2019 11:00:00 15,6 12,1 18 10 WSW 1025,0 -
13.12.2019 10:00:00 14,3 12,3 22 12 SW 1024,3 25
13.12.2019 09:00:00 13,1 11,7 15 8 SSW 1023,8 -
13.12.2019 08:00:00 13,9 11,4 22 12 SW 1023,2 -
13.12.2019 07:00:00 13,4 11,6 13 7 SSW 1023,0 30
13.12.2019 06:00:00 13,9 12,1 18 10 SW 1022,6 -
13.12.2019 05:00:00 13,9 12,1 15 8 WSW 1023,0 -
13.12.2019 04:00:00 13,8 11,7 18 10 SW 1022,8 30
13.12.2019 03:00:00 13,8 11,5 13 7 WSW 1023,2 -
13.12.2019 02:00:00 13,6 10,8 16 9 SW 1023,1 -
13.12.2019 01:00:00 13,5 10,3 15 8 WSW 1024,0 30
13.12.2019 00:00:00 13,6 9,8 15 8 SW 1023,9 -
12.12.2019 23:00:00 13,8 9,6 24 13 WSW 1023,9 -
12.12.2019 22:00:00 13,7 9,3 18 10 WSW 1024,2 30
12.12.2019 21:00:00 14,1 8,9 18 10 WSW 1024,1 -
12.12.2019 20:00:00 14,3 8,7 18 10 WSW 1024,1 -
12.12.2019 19:00:00 14,5 9,1 15 8 WSW 1024,5 30
12.12.2019 18:00:00 15,0 8,5 21 11 SW 1024,4 -
12.12.2019 17:00:00 16,5 7,7 24 13 W 1024,3 -
12.12.2019 16:00:00 16,4 6,5 22 12 W 1024,7 30
12.12.2019 15:00:00 16,9 6,0 31 17 W 1025,0 -
12.12.2019 14:00:00 15,4 8,3 13 7 SSW 1025,9 -
12.12.2019 13:00:00 14,2 7,5 13 7 SW 1027,2 30
12.12.2019 12:00:00 12,9 7,1 13 7 SW 1028,5 -
12.12.2019 11:00:00 10,8 6,3 9 5 SW 1029,2 -
12.12.2019 10:00:00 8,3 4,6 13 7 SSW 1028,0 30
12.12.2019 09:00:00 6,3 4,0 4 2 S 1028,3 -
12.12.2019 08:00:00 6,3 3,6 11 6 SSW 1028,2 -
12.12.2019 07:00:00 4,3 2,9 4 2 S 1027,8 30
12.12.2019 06:00:00 4,4 2,9 4 2 SSE 1028,1 -
12.12.2019 05:00:00 5,2 3,2 4 2 ESE 1028,2 -
12.12.2019 04:00:00 5,7 3,5 2 1 SW 1028,6 30
12.12.2019 03:00:00 6,1 3,9 0 0 N 1028,6 -
12.12.2019 02:00:00 6,5 4,5 0 0 N 1028,5 -
12.12.2019 01:00:00 6,8 5,1 4 2 W 1028,9 30
12.12.2019 00:00:00 6,8 5,2 4 2 WSW 1028,7 -
11.12.2019 23:00:00 8,4 6,2 5 3 WNW 1028,9 -
11.12.2019 22:00:00 9,3 6,4 4 2 NNW 1028,9 30
11.12.2019 21:00:00 11,2 6,5 4 2 NE 1028,5 -
11.12.2019 20:00:00 11,7 7,6 4 2 N 1028,1 -
11.12.2019 19:00:00 12,7 7,8 5 3 E 1027,3 30
11.12.2019 18:00:00 15,0 8,5 16 9 NE 1026,5 -
11.12.2019 17:00:00 16,5 10,3 4 2 NE 1025,9 -
11.12.2019 16:00:00 16,2 9,9 13 7 SW 1025,2 30
11.12.2019 15:00:00 15,6 9,5 11 6 SSW 1025,3 -
11.12.2019 14:00:00 13,9 9,7 11 6 SSW 1025,9 -
11.12.2019 13:00:00 11,8 10,3 8 4 S 1026,8 12
11.12.2019 12:00:00 9,9 9,9 8 4 S 1027,4 -
11.12.2019 11:00:00 8,0 7,9 2 1 W 1027,9 -
11.12.2019 10:00:00 7,3 7,2 9 5 NW 1027,3 0,2
11.12.2019 09:00:00 7,7 7,4 4 2 NNW 1026,9 -
11.12.2019 08:00:00 8,2 7,9 0 0 N 1026,2 -
11.12.2019 07:00:00 7,7 7,3 4 2 E 1026,0 -
11.12.2019 06:00:00 6,7 5,8 2 1 SSE 1025,9 -
11.12.2019 05:00:00 6,7 5,5 0 0 N 1025,7 -
11.12.2019 04:00:00 6,9 5,7 4 2 ESE 1025,8 30
11.12.2019 03:00:00 7,0 5,6 2 1 WSW 1025,8 -
11.12.2019 02:00:00 7,9 6,2 0 0 N 1025,9 -
11.12.2019 01:00:00 8,0 6,0 4 2 E 1026,2 30
11.12.2019 00:00:00 9,0 6,8 4 2 ENE 1026,4 -
10.12.2019 23:00:00 9,4 6,7 0 0 N 1026,5 -
10.12.2019 22:00:00 10,4 6,7 4 2 W 1026,4 30
10.12.2019 21:00:00 10,5 6,4 9 5 SE 1026,1 -
10.12.2019 20:00:00 11,7 6,2 8 4 SE 1026,3 -
10.12.2019 19:00:00 13,6 8,2 0 0 N 1026,0 30
10.12.2019 18:00:00 17,7 4,1 0 0 N 1026,0 -
10.12.2019 17:00:00 19,5 3,3 4 2 ESE 1025,9 -
10.12.2019 16:00:00 19,2 4,2 5 3 E 1026,1 30
10.12.2019 15:00:00 18,5 3,8 9 5 ENE 1026,6 -
10.12.2019 14:00:00 17,1 5,2 13 7 ENE 1027,3 -
10.12.2019 13:00:00 15,9 6,8 13 7 NE 1028,3 30
10.12.2019 12:00:00 13,7 8,3 13 7 NE 1029,0 -
10.12.2019 11:00:00 11,6 8,4 18 10 NE 1029,6 -
10.12.2019 10:00:00 9,3 7,9 13 7 NNE 1029,1 30
10.12.2019 09:00:00 8,5 7,2 11 6 NE 1028,8 -
10.12.2019 08:00:00 8,2 7,3 11 6 NE 1028,7 -
10.12.2019 07:00:00 8,6 7,7 8 4 NNE 1028,5 30
10.12.2019 06:00:00 9,6 8,5 13 7 NE 1028,6 -
10.12.2019 05:00:00 8,9 8,0 8 4 NE 1028,7 -
10.12.2019 04:00:00 9,2 8,4 8 4 ENE 1028,7 30
10.12.2019 03:00:00 9,4 8,8 9 5 NNE 1029,2 -
10.12.2019 02:00:00 9,8 9,2 8 4 ENE 1029,2 -
10.12.2019 01:00:00 9,7 8,9 2 1 NNW 1029,5 30
10.12.2019 00:00:00 9,8 8,8 4 2 E 1029,5 -
09.12.2019 23:00:00 10,9 9,8 0 0 N 1029,5 -
09.12.2019 22:00:00 12,1 10,3 2 1 ENE 1029,5 30
09.12.2019 21:00:00 12,2 10,8 2 1 NNW 1029,7 -
09.12.2019 20:00:00 12,5 10,7 4 2 E 1029,3 -
09.12.2019 19:00:00 13,8 10,9 5 3 ESE 1028,8 30

tt = temperature
td = dewpoint
ff = wind speed
dd = wind direction
ppp = reduced air pressure
vv = visibility

Next stations